Montana Department of Transportation

Main Content

Accidents and Incidents Report

Hourly Weather Roundup

ASUS45 KTFX 182110

RWRMT 

MONTANA REGIONAL WEATHER ROUNDUP

NATIONAL WEATHER SERVICE GREAT FALLS MT

300 PM MDT TUE SEP 18 2018



NOTE: "FAIR" INDICATES FEW OR NO CLOUDS BELOW 12000 FEET WITH NO

SIGNIFICANT WEATHER AND/OR OBSTRUCTIONS TO VISIBILITY.



MTZ001.007-043-182200-

WEST OF THE DIVIDE

  

CITY           SKY/WX    TMP DP  RH WIND       PRES   REMARKS

KALISPELL      FAIR      64  35  34 VRB3      29.98F                  

MISSOULA       FAIR      71  35  26 N8        29.95F                  

BUTTE          FAIR      68  25  19 NW7       29.97F                  

MULLAN PASS    FAIR      54  25  32 NW7       30.06F                  

ANACONDA         N/A     64  34  32 N12       29.97S                  

DEER LODGE       N/A     64  34  32 N6        29.99F                  

LIBBY            N/A     64  34  32 SW6       29.98F                  

PLAINS           N/A     69  34  27 CALM      29.98F                  

RONAN            N/A     66  34  30 CALM      30.01F                  

--------------------------------



MTZ008-052.055-182200-

SOUTHWEST MONTANA

  

CITY           SKY/WX    TMP DP  RH WIND       PRES   REMARKS

BOZEMAN        FAIR      71  36  27 NW9       29.94F                  

DILLON         FAIR      69  31  24 N3        29.93F                  

ENNIS          SUNNY     73  19  13 NW9       29.98F                  

W YELLOWSTONE  FAIR      73   7   7 SW16G33   29.98F                  

THREE FORKS      N/A     70  38  31 NE2       29.93F                  

--------------------------------



MTZ009-010-012-014-046-048-049-054-182200-

EAST SLOPES AND CENTRAL MONTANA

  

CITY           SKY/WX    TMP DP  RH WIND       PRES   REMARKS

CUT BANK       PTSUNNY   52  39  61 N17       30.05R                  

GREAT FALLS    FAIR      58  45  62 VRB3      30.00F                  

HELENA         FAIR      69  37  30 NE3       29.94F                  

WHITE SULPHUR    N/A     68  39  34 NE7       29.95S                  

--------------------------------



MTZ011-013-016-021-045-047-050-051-182200-

NORTH CENTRAL MONTANA

  

CITY           SKY/WX    TMP DP  RH WIND       PRES   REMARKS

HAVRE          FAIR      59  47  64 NE18      29.99S                  

LEWISTOWN      FAIR      66  48  52 E8        29.95S                  

N BAR RANCH    FAIR      63  46  55 MISG      29.99F                  

CHINOOK          N/A     57  48  72 E12       30.00S                  

--------------------------------



MTZ017.020-022.027-061-062-182200-

NORTHEAST MONTANA

  

CITY           SKY/WX    TMP DP  RH WIND       PRES   REMARKS

GLASGOW        PTSUNNY   67  45  45 MISG      29.98S                  

GLENDIVE       FAIR      71  42  35 E16       29.96F                  

JORDAN           N/A     74  41  30 E16       29.92F                  

MALTA          CLOUDY    59  48  67 NE14G21   29.98F                  

SIDNEY         FAIR      68  48  48 N16       29.97F                  

WOLF POINT     FAIR      64  48  56 E16       30.00F                  

POPLAR           N/A     63  46  55 E12G21    30.01F                  

SCOBEY           N/A     59  40  49 NE9       30.03F                  

--------------------------------



MTZ028.42-056.058-182200-

SOUTHCENTRAL AND SOUTHEAST MONTANA

  

CITY           SKY/WX    TMP DP  RH WIND       PRES   REMARKS

BAKER          FAIR      72  42  34 E16G32    29.95F                  

BILLINGS       FAIR      71  47  42 NE5       29.90F                  

LIVINGSTON     FAIR      72  41  32 CALM      29.92F                  

MILES CITY     PTSUNNY   77  45  32 SE16G22   29.89F                  

BIG TIMBER     SUNNY     68  46  45 VRB7      29.94F                  

EKALAKA          N/A     70  41  34 E17       29.92F                  

ROUNDUP          N/A     72  48  42 N7        29.83F                  

--------------------------------



REGIONAL REPORTS...DAKOTAS

  

CITY           SKY/WX    TMP DP  RH WIND       PRES   REMARKS

WILLISTON      FAIR      69  45  41 NE12      30.01F                  

MINOT          FAIR      69  43  38 VRB6      30.02F                  

DICKINSON      FAIR      69  42  37 E14       29.98F                  

BEACH          FAIR      68  43  40 E15G23    30.01F                  

CROSBY         FAIR      57  46  67 VRB6G13   30.07F                  

TIOGA          FAIR      63  46  55 NE12      30.04F                  

WATFORD CITY   FAIR      70  41  35 E8        29.99F                  

BISMARCK       PTSUNNY   68  45  43 E12       30.01F                  

GRAND FORKS    PTSUNNY   67  48  50 CALM      30.03S                  

FARGO          FAIR      67  48  50 N9        30.02S                  

BUFFALO SD       N/A     71  42  35 SE17      29.92F                  

RAPID CITY     FAIR      71  50  47 E8        29.95F                  

--------------------------------



REGIONAL REPORTS...WYOMING/IDAHO/WASHINGTON

  

CITY           SKY/WX    TMP DP  RH WIND       PRES   REMARKS

GILLETTE       FAIR      77  50  38 SE13      29.89F                  

SHERIDAN       FAIR      77  50  38 N5        29.87F                  

BUFFALO WY     FAIR      81  41  24 SE7       29.90F                  

CODY           FAIR      69  44  40 N8        29.92F                  

YELLOWSTONE LA   N/A     67  10  11 VRB7G22   30.10                   

IDAHO FALLS    FAIR      76  23  14 SW12      29.94F                  

SALMON         FAIR      72  30  21 CALM      29.90F                  

SPOKANE        FAIR      67  31  26 VRB5      30.02F                  

--------------------------------



REGIONAL REPORTS...ALBERTA

  

CITY           SKY/WX    TMP DP  RH WIND       PRES   REMARKS

CALGARY        PTSUNNY   43  37  81 N6        30.12S HAZE             

CARDSTON         N/A     41  39  93 N6          N/A                   

FORT MCMURRAY  PTSUNNY   46  30  53 NW9       30.11R                  

HIGH LEVEL     PTSUNNY   41  27  56 VRB3      30.15F                  

LETHBRIDGE     CLOUDY    46  41  81 N5        30.09F                  

LLOYDMINSTER   PTSUNNY   50  36  57 W14       30.09F                  

MEDICINE HAT   PTSUNNY   55  41  58 N15       30.07S                  

MILK RIVER       N/A     48  43  81 N16         N/A                   

PEACE RIVER    PTSUNNY   50  37  62 W3        30.13F                  

PINCHER CREEK  CLOUDY    43  39  87 E8        30.10R                  

RAYMOND          N/A     46  43  87 SW1         N/A                   

WATERTON GATE    N/A     43  36  75 E6          N/A                   

--------------------------------



REGIONAL REPORTS...SASKATCHEWAN

  

CITY           SKY/WX    TMP DP  RH WIND       PRES   REMARKS

CORONACH         N/A     52  41  66 N12         N/A                   

CYPRESS HILLS    N/A     48  41  76 NE5         N/A                   

ESTEVAN        SUNNY     59  41  51 N7        30.06F                  

MOOSE JAW        N/A     46  37  71 E1          N/A                   

PRINCE ALBERT  CLOUDY    46  37  71 W9        30.11S                  

REGINA         CLOUDY    45  36  70 NW7       30.12S                  

ROCKGLEN         N/A     45  39  81 N7          N/A                   

SASKATOON      CLOUDY    48  37  66 NW10      30.12F                  

SWIFT CURRENT  CLOUDY    46  37  71 NE5       30.08                   

VAL MARIE        N/A     46  43  87 NE14        N/A                   

--------------------------------